www.pogodaiklimat.ru

Погода и климат >> Архив погоды >> Монголия >> Ургамал


ПОГОДА в Ургамале

  • Прогноз погоды в Ургамале
  • Монитор погоды в Ургамале

АРХИВ ПОГОДЫ в Ургамале

Время (UTC), дата Ветер
(напр.,м/с)
 
Видим.   Явления Облачность Т
(С)
Тd
(С)
f
(%)
Тe
(С)
Тes
(С)
Комфортность P
(гПа)
Po
(гПа)
Тmin
(С)
Tmax
(С)
R
(мм)
R24
(мм)
S
(см)
03 14.07 В 2 50 км {ливн. осадки} 5/4 600 м
[Cb calv Ac lent]
+21.4 +9.6 47 +23 +29 комфорт 1001.5 852.4
06 14.07 З 3 50 км {ливн. осадки} 6/5 600 м
[Cb calv Ci fib]
+24.3 +7.9 35 +25 +32 комфорт 998.0 850.7
09 14.07 З 5 50 км 8/6 600 м
[Cb calv Ac lent Ci]
+24.0 +7.6 35 +24 +26 комфорт 996.7 849.6
12 14.07 З 6 50 км {гроза} 9/9 600 м
[Cb cap]
+22.9 +7.4 37 +24 +24 комфорт 998.0 850.1 +25.8 0.0
15 14.07 Ю 3 н/о в посл. час гроза {ливн. осадки} туман 9/9 600 м
[Cb cap]
+17.4 +12.0 71 +17 +17 1003.4 852.1
18 14.07 В 1 н/о зарница {гроза, ливн. осадки} 8/3 600 м
[Cb cap Ac trans]
+15.6 +12.7 83 +16 +16 1003.8 851.6
21 14.07 штиль 0 н/о 9/5 600 м
[Cb cap Ci sp]
+14.0 +12.2 89 +14 +14 1004.4 851.3
00 15.07 штиль 0 50 км 9/9 600 м
[Cb cap]
+15.1 +12.8 86 +15 +15 1003.7 851.3 +13.4 0.2
03 15.07 СЗ 2 4000 м гроза, ливневой дождь 9/9 600 м
[Cb cap]
+14.1 +12.8 92 +14 +15 1005.0 851.9
06 15.07 З 7
{11}
10 км ливневой дождь {гроза} 9/9 600 м
[Cb cap]
+18.4 +11.7 65 +18 +19 1001.9 851.4
09 15.07 З 6 50 км {гроза, ливн. осадки} 8/4 600 м
[Cb calv Cs]
+20.3 +10.1 52 +22 +24 комфорт 1000.7 851.3
12 15.07 З 4 50 км {гроза, ливн. осадки} 8/4 600 м
[Cb calv Cs]
+19.0 +10.0 56 +20 +20 1002.2 851.9 +21.1 2
15 15.07 СЗ 2 50 км 3/1 1000 м
[Cu hum Ac lent]
+17.3 +11.1 67 +18 +18 1004.3 852.9
18 15.07 СВ 2 50 км 3/0
[Ac lent]
+13.7 +11.4 86 +13 +13 1006.7 853.2
21 15.07 СВ 4 50 км ясно +12.5 +10.4 87 +11 +11 1006.9 852.7
00 16.07 В 5 50 км 3/0
[Ac cast]
+16.1 +10.8 71 +15 +16 1005.1 853.0 +11.9
03 16.07 ЮВ 5 50 км 6/1 1000 м
[Cu hum Ac trans]
+21.1 +10.6 51 +23 +27 комфорт 1002.0 852.7
06 16.07 ЮВ 4 50 км 8/5 600 м
[Cb calv Ac cast Ci fib]
+25.8 +10.0 37 +27 +31 жарко 997.7 851.2
09 16.07 ЮВ 3 50 км 9/8 600 м
[Cb calv Ci]
+27.3 +8.2 30 +27 +29 жарко 995.9 850.3
12 16.07 Ю 7 50 км {гроза} 8/5 600 м
[Cb calv Ac lent]
+26.4 +6.4 28 +26 +26 жарко 996.6 850.5 +28.8
15 16.07 В 4 20 км 5/1 600 м
[Cb calv Ac lent Ci fib]
+21.9 +9.1 44 +23 +23 комфорт 1001.1 852.3
18 16.07 В 6 50 км 3/0
[Ci]
+18.6 +9.1 54 +19 +19 1003.7 852.9
21 16.07 В 5
{11}
50 км 3/0
[Ci]
+18.0 +8.8 55 +18 +18 1004.4 853.3
00 17.07 В 4 50 км 6/0
[Ci]
+19.1 +9.8 55 +20 +21 1005.2 854.5 +16.4
03 17.07 Ю 2 50 км 1/0
[Ci]
+24.7 +8.6 36 +25 +37 комфорт 1002.9 855.0
06 17.07 СЗ 3 50 км 5/3 1000 м
[Cu med, cong Ci fib]
+27.4 +3.2 21 +26 +35 жарко 1000.5 854.4
09 17.07 Ю 1 50 км 4/3 1000 м
[Cb calv Ci sp]
+30.8 +2.1 16 +28 +36 жарко 997.7 853.3
12 17.07 СЗ 3 50 км 5/4 1000 м
[Cb calv Ci]
+30.0 +1.4 16 +27 +28 жарко 997.6 853.1 +31.6
15 17.07 СВ 8 50 км 1/0
[Ac lent]
+23.7 +4.6 29 +23 +23 комфорт 1002.1 854.0
18 17.07 В 5 н/о 5/0
[Ac trans]
+23.8 +2.0 24 +23 +23 комфорт 1002.6 854.5
21 17.07 В 5 н/о 6/0
[Ac cuf]
+21.1 +8.4 44 +22 +22 комфорт 1003.9 854.3
00 18.07 В 5 50 км 3/3 1000 м
[Cu hum]
+21.3 +7.9 42 +22 +23 комфорт 1004.5 855.0 +19.4
03 18.07 В 5 50 км 3/3 1000 м
[Cu hum]
+25.3 +7.9 33 +25 +30 комфорт 1001.8 854.5
06 18.07 С 1 50 км 6/6 1000 м
[Cu med, cong]
+29.8 +6.4 23 +29 +37 жарко 998.0 853.3
09 18.07 З 6
{13}
50 км 8/8 600 м
[Cb calv]
+30.3 +3.4 18 +28 +29 жарко 995.7 851.5
12 18.07 СВ 9
{19}
50 км пыльная буря на расстоянии {метель} 4/3 600 м
[Cb calv Ac lent]
+25.7 +6.8 30 +26 +26 жарко 999.2 852.5 +33.0
15 18.07 СВ 7 50 км 3/1 600 м
[Cb cap Ac cast]
+21.3 +8.6 44 +22 +22 комфорт 1002.8 853.5
18 18.07 СВ 4 50 км 1/0
[Ac lent]
+18.6 +6.8 46 +19 +19 1004.1 853.3
21 18.07 В 2 50 км ясно +14.9 +7.2 60 +15 +15 1006.1 853.3
00 19.07 ЮВ 2 50 км ясно +16.4 +8.4 59 +17 +19 1005.7 853.6 +13.2
03 19.07 ЮВ 2 50 км 6/3 1000 м
[Cu med, cong Ac cast Ci fib]
+24.8 +7.0 32 +25 +31 комфорт 1001.3 853.7
06 19.07 В 2 50 км 5/5 600 м
[Cb calv]
+29.3 +4.7 21 +28 +36 жарко 997.5 852.6
09 19.07 СЗ 7 50 км 8/4 600 м
[Cb calv Cs]
+29.6 +2.8 18 +27 +29 жарко 996.1 851.5
12 19.07 З 2 50 км 8/3 1000 м
[Cu hum Cs]
+29.3 -2.0 13 +26 +27 жарко 995.4 850.8 +30.5
15 19.07 СВ 5 50 км 4/0
[Ac As]
+23.2 +2.1 25 +23 +23 комфорт 998.8 850.9
18 19.07 В 4 50 км 8/4 1000 м
[Cb calv Ac As]
+21.8 +0.1 24 +21 +21 комфорт 999.6 851.0
21 19.07 СВ 2 50 км 4/0
[Ac cast]
+18.2 +1.2 32 +19 +19 1001.2 850.7
00 20.07 СЗ 3 50 км 8/5 1000 м
[Cb calv Cs]
+18.5 +4.3 39 +19 +20 1001.8 851.3 +16.2
03 20.07 З 4 50 км 5/3 1000 м
[Cu hum Ci]
+23.2 +6.0 33 +24 +29 комфорт 998.8 851.0
06 20.07 З 6 50 км 4/3 1000 м
[Cb calv Ci fib]
+28.2 +2.4 19 +26 +31 жарко 995.1 850.0
09 20.07 З 6 50 км 8/3 600 м
[Cb calv Cs]
+28.7 +1.2 17 +26 +29 жарко 994.2 849.5
12 20.07 З 3
{11}
50 км 8/3 600 м
[Cb calv Ac cast Ci fib]
+27.3 -0.7 16 +25 +25 комфорт 994.3 849.0 +29.6
15 20.07 С 3
{30}
н/о гроза без осадков {ливн. осадки} 8/8 600 м
[Cb cap]
+23.9 +4.3 28 +24 +24 комфорт 997.9 850.5
18 20.07 СВ 4
{14}
н/о зарница {гроза, ливн. осадки} 8/6 600 м
[Cb cap Ac cuf]
+20.3 +5.5 38 +21 +21 комфорт 999.7 850.4
21 20.07 СВ 9
{18}
н/о пыльная буря на расстоянии {метель} 8/6 600 м
[Cb calv Ac lent]
+17.9 +6.4 47 +17 +17 1001.7 851.0

 

Местоположение метеостанции Ургамал (Монголия): широта 48.52 долгота 94.30 высота над уровнем моря 1263 м.

В архиве по умолчанию представлена погода в Ургамале за последнюю неделю. Архивные данные за месяц целиком и за предыдущие месяцы, начиная с января 2011 года, Вы можете получить, выбрав интересующий диапазон дат из раскрывающегося списка и нажав кнопку "Ввод!".


*Определитесь, кто Вы:
робот инопланетянин человек

Внимание! Время в таблицах - всемирное. Для получения местного времени необходимо прибавить поправку, которая равна 8 ч.

Смотрите также архив погоды в соседних городах и на ближайших метеорологических станциях:

Погода в Завхане (Монголия) (94 км)
Погода в Баруунтурууне (Монголия) (126 км)
Погода в Цэцэн-Ууле (Монголия) (128 км)
Погода в Тэсе (Монголия) (166 км)
Погода в Умнегове (Монголия) (197 км)
Погода в Эрзине (Тува, Россия) (203 км)
Погода в Улиастае (Монголия) (208 км)
Погода в Ховде (Монголия) (210 км)
Погода в Улаангоме (Монголия) (215 км)
Погода в Тонхиле (Монголия) (247 км)

Пояснения к столбцам:

Ветер - указаны скорость ветра в м/с - средняя за 10 мин, порывы в срок и между сроками (в фигурных скобках) и направление, откуда дует ветер: С - северный, СВ - северо-восточный, В - восточный, ЮВ - юго-восточный, Ю - южный, ЮЗ - юго-западный, З - западный, СЗ - северо-западный.
Видимость - горизонтальная дальность видимости в метрах или километрах. При видимости от 1 до 10 км при отсутствии осадков обычно наблюдается дымка, при ухудшении видимости до 1 км и менее - туман. В сухую погоду видимость может ухудшаться дымом, пылью или мглою.
Явления - указаны атмосферные явления, наблюдавшиеся в срок или в последний час перед сроком; фигурными скобками обозначены явления, наблюдавшиеся между сроками (за 1-3 часа до срока); квадратными скобками обозначены град или гололедные отложения с указанием их диаметра в мм.
Облачность - указаны через наклонную черту общая и нижняя облачность в баллах и высота нижней границы облаков в метрах; квадратными скобками обозначены формы облаков: Ci - перистые, Cs - перисто-слоистые, Cc - перисто-кучевые, Ac - высококучевые, As - высокослоистые, Sc - слоисто-кучевые, Ns - слоисто-дождевые, Cu - кучевые, Cb - кучево-дождевые. Подробнее классификацию облаков см. в Атласе облаков (PDF).
T - Температура воздуха - температура, измеренная на высоте 2 м над землей.
Td - Температура точки росы - температура, при понижении до которой содержащийся в воздухе водяной пар достигнет насыщения.
f - Относительная влажность воздуха - влажноcть воздуха, измеренная на высоте 2 м над землей.
Te - Эффективная температура - температура, которую ощущает одетый по сезону человек в тени. Характеристика душности погоды. При расчете учитывается влияние влажности воздуха и скорости ветра на теплоощущения человека.
Tes - Эффективная температура на солнце - температура, которую ощущает человек, с поправкой на солнечный нагрев. Характеристика знойности погоды. Зависит от высоты солнца над горизонтом, облачности и скорости ветра. Ночью, в пасмурную погоду, а также при ветре 12 м/с и более поправка равна нулю.
P - Атмосферное давление - приведенное к уровню моря атмосферное давление.
Po - Атмосферное давление - измеренное на уровне метеостанции атмосферное давление.
Tmin - Минимальная температура - минимум температуры воздуха на высоте 2 м над землей.
Tmax - Максимальная температура - максимум температуры воздуха на высоте 2 м над землей.
R - Количество осадков - Количество выпавших осадков за период времени, мм. При наведении курсора мыши на число - период времени, за который выпало указанное количество осадков.
R24 - Количество осадков - Количество выпавших осадков за 24 часа, мм.
S - Снежный покров - Высота снежного покрова, см. При наведении курсора мыши на число - состояние снежного покрова и степень покрытия местности в баллах.